FW6802 Weather Reports


Display with metric or nautical units.
time (UTC)temp
F
wind
direction
speed
MPH
gust
MPH
rain 1hr
in
rain 24hr
in
rain mn
in
humidity
%
barometer
mb
20260903051127 81 184 0.0 13.0 0.00 0.00 0.00 81 1013.2
20260903050110 82 184 0.0 13.0 0.00 0.00 0.00 80 1013.3
20260903045610 82 183 1.0 13.0 0.00 0.00 0.00 80 1013.3
20260903045110 82 183 0.0 13.0 0.00 0.00 0.00 80 1013.3
20260903044609 82 176 0.0 13.0 0.00 0.00 0.00 80 1013.0
20260903044108 82 186 1.0 13.0 0.00 0.00 0.00 80 1013.2
20260903043052 82 170 1.0 13.0 0.00 0.00 0.00 80 1013.2
20260903042551 82 168 1.0 13.0 0.00 0.00 0.00 80 1012.8
20260903042050 82 166 2.0 13.0 0.00 0.00 0.00 79 1012.9
20260903041549 83 165 1.0 13.0 0.00 0.00 0.00 79 1013.1
20260903041049 83 165 0.0 13.0 0.00 0.00 0.00 79 1013.1
20260903040548 83 165 1.0 13.0 0.00 0.00 0.00 79 1013.0
20260903040047 83 192 2.0 13.0 0.00 0.00 0.00 79 1013.0
20260903035547 83 191 1.0 13.0 0.00 0.00 0.00 78 1013.1
20260903035047 83 192 1.0 13.0 0.00 0.00 0.00 79 1013.0
20260903034547 83 189 1.0 13.0 0.00 0.00 0.00 79 1013.2
20260903034046 83 182 2.0 13.0 0.00 0.00 0.00 79 1013.0
20260903033545 83 170 1.0 13.0 0.00 0.00 0.00 78 1013.0
20260903033044 83 165 1.0 13.0 0.00 0.00 0.00 79 1013.1
20260903032544 84 178 2.0 13.0 0.00 0.00 0.00 79 1013.4
20260903032044 84 179 1.0 13.0 0.00 0.00 0.00 78 1013.2
20260903031544 84 179 1.0 13.0 0.00 0.00 0.00 78 1013.2
20260903030528 84 183 1.0 13.0 0.00 0.00 0.00 78 1013.2
20260903030027 84 183 1.0 13.0 0.00 0.00 0.00 78 1013.3
20260903025010 84 186 0.0 13.0 0.00 0.00 0.00 78 1013.4
20260903024510 84 186 1.0 13.0 0.00 0.00 0.00 77 1013.3
20260903024011 84 186 0.0 13.0 0.00 0.00 0.00 77 1013.7
20260903022954 85 186 1.0 13.0 0.00 0.00 0.00 76 1013.4
20260903022453 85 187 1.0 13.0 0.00 0.00 0.00 76 1013.3
20260903021436 85 178 2.0 13.0 0.00 0.00 0.00 75 1013.2
20260903020419 85 173 2.0 13.0 0.00 0.00 0.00 75 1013.3
20260903015919 85 169 2.0 13.0 0.00 0.00 0.00 74 1013.2
20260903015418 85 177 2.0 13.0 0.00 0.00 0.00 74 1013.4
20260903014918 85 177 2.0 13.0 0.00 0.00 0.00 74 1013.4
20260903013902 86 172 1.0 13.0 0.00 0.00 0.00 74 1013.2
20260903013401 86 174 1.0 13.0 0.00 0.00 0.00 74 1013.2
20260903012900 86 175 1.0 13.0 0.00 0.00 0.00 73 1013.1
20260903012359 86 174 1.0 13.0 0.00 0.00 0.00 73 1013.2
20260903011859 86 170 1.0 13.0 0.00 0.00 0.00 73 1012.9
20260903011358 86 179 2.0 13.0 0.00 0.00 0.00 73 1012.9
20260903010858 86 193 2.0 13.0 0.00 0.00 0.00 73 1012.9
20260903010358 86 198 2.0 13.0 0.00 0.00 0.00 72 1012.8
20260903005342 87 204 2.0 13.0 0.00 0.00 0.00 72 1012.8
20260903004842 87 200 2.0 13.0 0.00 0.00 0.00 72 1012.6
20260903004342 87 204 2.0 13.0 0.00 0.00 0.00 72 1012.9
20260903003327 88 201 3.0 13.0 0.00 0.00 0.00 71 1013.0
20260903002827 88 212 2.0 13.0 0.00 0.00 0.00 71 1012.9
20260903001811 89 186 3.0 13.0 0.00 0.00 0.00 70 1012.5
20260903001311 89 184 2.0 13.0 0.00 0.00 0.00 69 1012.9
20260903000811 89 183 2.0 13.0 0.00 0.00 0.00 69 1012.5
20260903000311 90 190 2.0 13.0 0.00 0.00 0.00 69 1012.7
20260902235811 90 206 2.0 13.0 0.00 0.00 0.00 68 1012.7
20260902234755 91 188 3.0 13.0 0.00 0.00 0.00 67 1012.7
20260902233739 92 183 1.0 13.0 0.00 0.00 0.00 66 1012.5
20260902233239 92 179 2.0 13.0 0.00 0.00 0.00 65 1012.9
20260902232738 93 186 2.0 13.0 0.00 0.00 0.00 63 1010.5
20260902232237 93 207 2.0 13.0 0.00 0.00 0.00 63 1010.9
20260902231736 93 212 3.0 13.0 0.00 0.00 0.00 61 1011.1
20260902231236 93 210 3.0 13.0 0.00 0.00 0.00 61 1011.4
20260902230734 94 211 4.0 13.0 0.00 0.00 0.00 60 1011.9
20260902230233 94 215 5.0 13.0 0.00 0.00 0.00 59 1012.4
20260902225732 94 209 4.0 13.0 0.00 0.00 0.00 58 1012.8
20260902225231 94 211 4.0 13.0 0.00 0.00 0.00 58 1013.1
20260902224731 95 217 4.0 13.0 0.00 0.00 0.00 58 1013.4
20260902224230 94 209 3.0 13.0 0.00 0.00 0.00 58 1013.6
20260902223729 95 222 5.0 13.0 0.00 0.00 0.00 58 1013.5
20260902223229 95 203 4.0 13.0 0.00 0.00 0.00 58 1013.6
20260902222214 95 204 4.0 13.0 0.00 0.00 0.00 57 1013.2
20260902221713 95 223 5.0 13.0 0.00 0.00 0.00 57 1013.4
20260902221213 96 220 4.0 13.0 0.00 0.00 0.00 56 1013.3
20260902220157 96 216 4.0 13.0 0.00 0.00 0.00 57 1013.0
20260902215657 96 205 4.0 13.0 0.00 0.00 0.00 57 1013.3
20260902215156 96 197 4.0 13.0 0.00 0.00 0.00 56 1012.8
20260902214655 96 199 5.0 13.0 0.00 0.00 0.00 56 1013.5
20260902214155 96 203 5.0 13.0 0.00 0.00 0.00 56 1013.5
20260902213655 96 207 5.0 13.0 0.00 0.00 0.00 55 1014.0
20260902213155 97 206 6.0 13.0 0.00 0.00 0.00 53 1013.9
20260902212653 97 227 4.0 13.0 0.00 0.00 0.00 54 1014.1
20260902212152 97 210 5.0 13.0 0.00 0.00 0.00 53 1013.3
20260902211651 97 230 5.0 13.0 0.00 0.00 0.00 52 1013.3
20260902211151 97 226 5.0 13.0 0.00 0.00 0.00 52 1013.0
20260902210650 97 216 4.0 13.0 0.00 0.00 0.00 54 1013.1
20260902210149 97 211 7.0 13.0 0.00 0.00 0.00 54 1012.9
20260902205648 97 220 6.0 12.0 0.00 0.00 0.00 52 1013.0
20260902205147 98 211 6.0 12.0 0.00 0.00 0.00 51 1013.5
20260902204647 98 226 4.0 12.0 0.00 0.00 0.00 53 1013.4
20260902203631 97 214 5.0 12.0 0.00 0.00 0.00 54 1013.4
20260902203131 97 201 5.0 12.0 0.00 0.00 0.00 54 1013.4
20260902202631 97 220 6.0 12.0 0.00 0.00 0.00 52 1013.3
20260902202130 97 201 6.0 12.0 0.00 0.00 0.00 53 1013.2
20260902201630 98 216 6.0 12.0 0.00 0.00 0.00 53 1013.7
20260902201129 98 211 6.0 12.0 0.00 0.00 0.00 51 1013.7
20260902200628 98 211 5.0 12.0 0.00 0.00 0.00 52 1013.7
20260902200128 98 218 5.0 12.0 0.00 0.00 0.00 51 1013.6
20260902195627 98 221 6.0 12.0 0.00 0.00 0.00 52 1013.6
20260902195126 97 200 5.0 12.0 0.00 0.00 0.00 53 1013.6
20260902194626 98 203 5.0 12.0 0.00 0.00 0.00 52 1013.8
20260902193610 98 214 8.0 16.0 0.00 0.00 0.00 51 1013.8
20260902193110 97 215 3.0 12.0 0.00 0.00 0.00 52 1014.2
20260902192610 98 187 7.0 12.0 0.00 0.00 0.00 52 1013.8
20260902191553 98 220 6.0 12.0 0.00 0.00 0.00 52 1014.1
20260902191052 97 212 6.0 12.0 0.00 0.00 0.00 52 1014.4
20260902190035 97 195 6.0 13.0 0.00 0.00 0.00 53 1014.0
20260902184505 97 211 5.0 12.0 0.00 0.00 0.00 54 1014.4
20260902183449 97 200 6.0 12.0 0.00 0.00 0.00 53 1014.2
20260902182948 98 190 5.0 12.0 0.00 0.00 0.00 53 1014.2
20260902181933 97 200 4.0 12.0 0.00 0.00 0.00 54 1014.4
20260902181432 97 211 5.0 13.0 0.00 0.00 0.00 55 1014.5
20260902180932 96 223 5.0 13.0 0.00 0.00 0.00 55 1014.4
20260902180431 96 229 5.0 13.0 0.00 0.00 0.00 54 1014.4
20260902175930 96 181 7.0 13.0 0.00 0.00 0.00 54 1014.5
20260902175430 96 174 4.0 14.0 0.00 0.00 0.00 56 1014.5
20260902174930 96 200 7.0 14.0 0.00 0.00 0.00 55 1014.4
20260902174429 96 200 6.0 14.0 0.00 0.00 0.00 54 1014.6
20260902173929 96 200 6.0 13.0 0.00 0.00 0.00 56 1014.5
20260902173428 95 203 5.0 12.0 0.00 0.00 0.00 56 1014.7
20260902172928 95 188 6.0 12.0 0.00 0.00 0.00 56 1014.7
20260902172427 95 226 5.0 12.0 0.00 0.00 0.00 57 1014.6
20260902171927 95 183 7.0 14.0 0.00 0.00 0.00 57 1014.7
20260902171426 95 220 6.0 14.0 0.00 0.00 0.00 57 1015.2
20260902170925 95 186 6.0 14.0 0.00 0.00 0.00 56 1014.8
20260902170424 95 204 6.0 11.0 0.00 0.00 0.00 56 1014.8
20260902165923 95 204 5.0 11.0 0.00 0.00 0.00 57 1014.9
20260902162249 93 188 5.0 12.0 0.00 0.00 0.00 61 1015.1
20260902161749 93 229 5.0 12.0 0.00 0.00 0.00 60 1015.5
20260902161248 93 211 4.0 12.0 0.00 0.00 0.00 62 1015.4
20260902160748 93 197 6.0 12.0 0.00 0.00 0.00 62 1015.2
20260902160248 92 206 4.0 12.0 0.00 0.00 0.00 62 1015.2
20260902155232 92 189 5.0 11.0 0.00 0.00 0.00 63 1015.1
20260902154731 92 215 5.0 12.0 0.00 0.00 0.00 64 1015.3
20260902154231 92 214 4.0 12.0 0.00 0.00 0.00 65 1015.4
20260902153731 91 202 3.0 12.0 0.00 0.00 0.00 67 1015.5
20260902153230 91 198 4.0 12.0 0.00 0.00 0.00 66 1015.4
20260902152729 91 200 3.0 12.0 0.00 0.00 0.00 66 1015.6
20260902152230 90 197 3.0 12.0 0.00 0.00 0.00 67 1015.6
20260902151729 90 187 4.0 12.0 0.00 0.00 0.00 68 1015.2
20260902151226 90 198 4.0 12.0 0.00 0.00 0.00 68 1015.4
20260902150726 89 204 3.0 12.0 0.00 0.00 0.00 69 1015.2
20260902150225 89 197 4.0 12.0 0.00 0.00 0.00 69 1015.4
20260902145724 89 207 4.0 12.0 0.00 0.00 0.00 69 1015.3
20260902145224 89 206 3.0 12.0 0.00 0.00 0.00 70 1015.1
20260902144723 88 199 5.0 12.0 0.00 0.00 0.00 69 1015.2
20260902144223 88 207 2.0 12.0 0.00 0.00 0.00 70 1015.2
20260902143206 87 205 3.0 12.0 0.00 0.00 0.00 72 1015.4
20260902142705 86 227 4.0 12.0 0.00 0.00 0.00 73 1015.5
20260902142205 86 212 4.0 12.0 0.00 0.00 0.00 73 1015.4
20260902141704 86 209 3.0 12.0 0.00 0.00 0.00 74 1015.2
20260902141204 85 203 2.0 12.0 0.00 0.00 0.00 75 1015.5
20260902140703 85 209 3.0 12.0 0.00 0.00 0.00 76 1015.9
20260902140202 84 204 3.0 12.0 0.00 0.00 0.00 76 1015.4
20260902135702 84 205 3.0 12.0 0.00 0.00 0.00 77 1015.7
20260902135201 83 210 3.0 12.0 0.00 0.00 0.00 77 1015.7
20260902134144 83 214 2.0 12.0 0.00 0.00 0.00 78 1016.1
20260902133643 82 210 4.0 12.0 0.00 0.00 0.00 78 1015.7
20260902132626 81 216 2.0 12.0 0.00 0.00 0.00 80 1015.6
20260902132125 81 197 3.0 12.0 0.00 0.00 0.00 80 1015.7
20260902131109 80 198 2.0 12.0 0.00 0.00 0.00 82 1015.6
20260902130609 80 185 2.0 12.0 0.00 0.00 0.00 82 1015.6
20260902130109 79 188 1.0 12.0 0.00 0.00 0.00 83 1015.4
20260902125608 79 182 1.0 12.0 0.00 0.00 0.00 84 1015.8
20260902125107 78 199 1.0 12.0 0.00 0.00 0.00 85 1015.7
20260902124606 78 191 2.0 12.0 0.00 0.00 0.00 85 1015.5
20260902123551 77 203 2.0 12.0 0.00 0.00 0.00 87 1015.5
20260902122535 76 178 2.0 12.0 0.00 0.00 0.00 87 1015.7
20260902122035 76 189 2.0 12.0 0.00 0.00 0.00 88 1015.4
20260902121535 76 192 1.0 12.0 0.00 0.00 0.00 88 1015.5
20260902121035 76 192 1.0 12.0 0.00 0.00 0.00 89 1015.5
20260902120534 76 192 1.0 12.0 0.00 0.00 0.00 89 1015.6
20260902120033 75 192 1.0 12.0 0.00 0.00 0.00 89 1015.3
20260902115533 75 191 1.0 12.0 0.00 0.00 0.00 89 1015.6
20260902115032 75 191 1.0 12.0 0.00 0.00 0.00 89 1015.5
20260902114531 75 192 1.0 12.0 0.00 0.00 0.00 89 1015.4
20260902114031 75 192 0.0 12.0 0.00 0.00 0.00 89 1015.7
20260902113531 75 192 0.0 12.0 0.00 0.00 0.00 89 1015.2
20260902113031 75 192 0.0 12.0 0.00 0.00 0.00 89 1015.1
20260902112531 75 192 0.0 12.0 0.00 0.00 0.00 89 1015.1
20260902112030 75 192 0.0 12.0 0.00 0.00 0.00 89 1015.1
20260902111530 75 192 0.0 12.0 0.00 0.00 0.00 89 1014.8
20260902111030 75 192 0.0 12.0 0.00 0.00 0.00 89 1015.0
20260902110530 75 192 0.0 12.0 0.00 0.00 0.00 89 1014.7
20260902110030 75 192 0.0 12.0 0.00 0.00 0.00 89 1015.1
20260902105530 75 192 0.0 12.0 0.00 0.00 0.00 89 1014.8
20260902105030 75 192 0.0 12.0 0.00 0.00 0.00 88 1015.0
20260902104530 75 192 0.0 12.0 0.00 0.00 0.00 88 1014.8
20260902104030 76 192 0.0 12.0 0.00 0.00 0.00 88 1015.1
20260902103015 76 192 0.0 12.0 0.00 0.00 0.00 88 1014.8
20260902102515 76 192 0.0 12.0 0.00 0.00 0.00 88 1014.7
20260902102015 76 192 0.0 12.0 0.00 0.00 0.00 88 1014.6
20260902101515 76 192 1.0 12.0 0.00 0.00 0.00 88 1014.8
20260902101014 76 192 1.0 12.0 0.00 0.00 0.00 88 1014.8
20260902100514 76 192 0.0 12.0 0.00 0.00 0.00 88 1014.5
20260902100014 76 192 0.0 12.0 0.00 0.00 0.00 88 1014.5
20260902094958 76 192 1.0 12.0 0.00 0.00 0.00 87 1014.6
20260902094458 76 192 1.0 12.0 0.00 0.00 0.00 87 1014.7
20260902093958 76 192 0.0 12.0 0.00 0.00 0.00 87 1014.7
20260902093458 76 192 0.0 12.0 0.00 0.00 0.00 87 1014.7
20260902092957 76 192 0.0 12.0 0.00 0.00 0.00 87 1014.3
20260902092457 76 192 1.0 12.0 0.00 0.00 0.00 87 1014.4
20260902091957 76 192 0.0 12.0 0.00 0.00 0.00 87 1014.5
20260902091457 77 192 0.0 12.0 0.00 0.00 0.00 87 1014.5
20260902090957 77 192 1.0 12.0 0.00 0.00 0.00 87 1014.4
20260902090456 77 192 0.0 12.0 0.00 0.00 0.00 87 1014.2
20260902085441 77 192 0.0 12.0 0.00 0.00 0.00 87 1014.5
20260902084424 77 192 1.0 12.0 0.00 0.00 0.00 87 1014.2
20260902083924 77 191 1.0 12.0 0.00 0.00 0.00 87 1014.3
20260902083423 77 191 1.0 12.0 0.00 0.00 0.00 87 1014.3
20260902082923 77 190 0.0 12.0 0.00 0.00 0.00 87 1014.3
20260902082422 77 190 1.0 12.0 0.00 0.00 0.00 87 1014.4
20260902081921 77 190 1.0 12.0 0.00 0.00 0.00 87 1014.2
20260902081420 77 190 0.0 12.0 0.00 0.00 0.00 87 1014.2
20260902080405 77 190 0.0 12.0 0.00 0.00 0.00 87 1014.1
20260902075905 77 190 0.0 12.0 0.00 0.00 0.00 86 1013.9
20260902075405 77 190 0.0 12.0 0.00 0.00 0.00 86 1014.2
20260902074905 77 190 0.0 12.0 0.00 0.00 0.00 86 1014.1
20260902074405 78 190 0.0 12.0 0.00 0.00 0.00 86 1014.1
20260902073905 78 190 0.0 12.0 0.00 0.00 0.00 86 1014.0
20260902073405 78 190 0.0 12.0 0.00 0.00 0.00 86 1014.1
20260902071319 78 190 0.0 12.0 0.00 0.00 0.00 86 1014.2
20260902070819 78 190 0.0 12.0 0.00 0.00 0.00 86 1014.2
20260902070318 78 189 0.0 12.0 0.00 0.00 0.00 86 1014.3
20260902065818 78 189 0.0 12.0 0.00 0.00 0.00 86 1014.1
20260902065317 78 189 0.0 12.0 0.00 0.00 0.00 86 1014.1
20260902064301 78 189 0.0 12.0 0.00 0.00 0.00 86 1014.1
20260902063800 78 189 0.0 12.0 0.00 0.00 0.00 85 1014.1
20260902063259 79 189 0.0 12.0 0.00 0.00 0.00 85 1014.2
20260902062758 79 189 0.0 12.0 0.00 0.00 0.00 85 1014.1
20260902062257 79 189 0.0 12.0 0.00 0.00 0.00 85 1014.3
20260902061756 79 189 0.0 12.0 0.00 0.00 0.00 85 1014.4
20260902061256 79 189 0.0 12.0 0.00 0.00 0.00 85 1014.0
20260902055724 79 189 0.0 12.0 0.00 0.00 0.00 85 1014.4
20260902055223 79 189 0.0 12.0 0.00 0.00 0.00 85 1014.5
20260902054207 79 189 1.0 12.0 0.00 0.00 0.00 85 1014.2
20260902053707 79 189 1.0 12.0 0.00 0.00 0.00 85 1014.1
20260902053206 80 189 0.0 12.0 0.00 0.00 0.00 85 1014.1
20260902052706 80 189 0.0 12.0 0.00 0.00 0.00 85 1014.3
20260902052206 80 189 0.0 12.0 0.00 0.00 0.00 84 1014.2